Regional Weather Roundup
Issued by NWS Newport/Morehead, NC

Current Version | Previous Version | Graphics & Text | Print | Product List | Glossary Off
Versions: 1 2 3 4 5 6 7 8 9 10 11 12 13 14 15 16 17 18 19 20 21 22 23 24 25 26 27 28 29 30 31 32 33 34 35 36 37 38 39 40 41 42 43 44 45 46 47 48 49 50

000
ASUS42 KMHX 080624
RWRMHX
WEATHER ROUNDUP FOR EASTERN NORTH CAROLINA
NATIONAL WEATHER SERVICE NEWPORT/MOREHEAD CITY NC
100 AM EST THU DEC 08 2016

NOTE: "FAIR" INDICATES FEW OR NO CLOUDS BELOW 12,000 FEET
WITH NO SIGNIFICANT WEATHER AND/OR OBSTRUCTIONS TO VISIBILITY

NCZ015>017-031-032-045>047-102-103-080700-
NORTH COAST

CITY           SKY/WX    TMP DP  RH WIND       PRES   REMARKS
EDENTON        MOCLDY    45  42  92 CALM      30.09S
ELIZABETH CITY CLOUDY    39  39 100 CALM      30.08F
KITTY HAWK     CLEAR     46  46  98 CALM      30.07S
MANTEO         CLEAR     40  40 100 CALM      30.08F

$$

NCZ045>047-081-094-103-104-080700-
CENTRAL COAST

CITY           SKY/WX    TMP DP  RH WIND       PRES   REMARKS
FRISCO         NOT AVBL

$$

NCZ095-097-098-100-101-080700-
SOUTHERN COAST

CITY           SKY/WX    TMP DP  RH WIND       PRES   REMARKS
BEAUFORT       CLEAR     45  44  97 NE5       30.08F
CEDAR ISLAND   NOT AVBL
JACKSONVILLE   PTCLDY    44  44 100 CALM      30.07F
PINEY ISLAND   MOCLDY   N/A N/A N/A NE6       30.07F
WILMINGTON     CLOUDY    43  43 100 CALM      30.07F


$$

NCZ011>013-027>030-043-044-078>080-089-090>093-098-080700-
COASTAL PLAIN

CITY           SKY/WX    TMP DP  RH WIND       PRES   REMARKS
AHOSKIE        CLOUDY    44  42  94 SE3       30.08F
CLINTON        CLOUDY    49  48  97 CALM      30.06F
ELIZABETHTOWN  CLOUDY    48  48 100 SE5       30.06F
GOLDSBORO      CLOUDY    49  49  99 SE5       30.04F
GREENVILLE     CLOUDY    43  43 100 CALM      30.09F
HAVELOCK       CLOUDY    46  43  89 N5        30.09F
KENANSVILLE    NOT AVBL
KINSTON        CLOUDY    45  44  97 CALM      30.07F
NEW BERN       CLOUDY    46  44  93 CALM      30.09F
RICHLANDS      CLOUDY    47  45  93 CALM      30.08F
ROCKY MOUNT    CLOUDY    45  45 100 SE3       30.06F
WASHINGTON       N/A     41  40  97 CALM      30.08F
WHITEVILLE     MOCLDY    44  43  97 CALM      30.06S

$$

AMZ130-135-150-152-154-156-158-170-250-252-270-ANZ085-086-088-633-658-670-080700-
MARINE OBSERVATIONS

STATION/POSITION TIME  TEMP    WIND        PRES    WAVE   SWELL
                       AIR SEA DIR/SP/G            HT/PER HT/PER
                 (UTC) (F)     (DEG/KT/KT) (MB)    (FT/S) (FT/S)
CHESAPEAKE LIGHT NOT AVBL
64 E VA BEACH    NOT AVBL
DUCK             0600   50 54  270/  3/  4 1017.8
2 E DUCK         NOT AVBL
OREGON INLET     0600   49 56  290/  4/  6 1018.5
13E OREGON INLT  NOT AVBL
HATTERAS CG      0600   52 60  340/  6/  7 1018.3
DIAMOND BUOY     NOT AVBL
CAPE LOOKOUT     0500   53      20/  6/  7 1018.0
BEAUFORT LAB     0600   47 55   30/  4/  5 1017.2
30 SE NEW RVR IN 0608   58 71   70/  2/  4 1018.1
30 SE NEW RVR IN NOT AVBL
27 SE WRIGHTSVLE 0608   60 70  300/  6/ 10 1017.7
5 SE WRIGHTSVLE  0508   54 62  290/  6/ 10 1017.8
225 S CAPE HAT   NOT AVBL
41 SE CHARLESTON NOT AVBL

$$



USA.gov is the U.S. government's official web portal to all federal, state and local government web resources and services.